Simultaneous Nadir Overpasses (SNOs) Predictions

Prediction of SNOs between GOES-15 and METOP-B Satellite Orbit:

Table of predicted SNOs for the next 14.0 days since TLE Epoch: 5/14/2022
Index Date Time (GOES-15) GOES-15 Lat,Lon METOP-B Lat,Lon Distance(km) Time Diff (sec)
1 05/15/2022 05:59:23 0.19,-127.71 0.22,-127.68 4.57 80
2 05/17/2022 18:00:12 -0.19,-127.67 -0.27,-127.23 50.12 80
3 05/19/2022 06:19:12 0.20,-127.54 -0.77,-131.82 487.20 80
4 05/20/2022 05:55:52 0.20,-127.50 0.38,-126.83 77.24 80
5 05/21/2022 18:14:43 -0.21,-127.49 0.64,-131.38 442.73 80
6 05/22/2022 17:56:42 -0.21,-127.45 -0.45,-126.38 121.88 80
7 05/24/2022 06:15:41 0.21,-127.32 -0.59,-130.97 415.22 80
8 05/25/2022 05:52:21 0.21,-127.28 0.51,-125.97 149.26 80
9 05/26/2022 18:11:11 -0.21,-127.27 0.51,-130.52 370.67 80
10 05/27/2022 17:53:11 -0.21,-127.22 -0.59,-125.52 193.85 80
